Flag for Australia Weather past 2 weeks in Samford, Queensland, Australia

Now
70 °F

Scattered clouds.


Feels Like: 70 °F
Forecast: 51 / 76 °F
Wind: 9 mph from Southeast

Location: Brisbane Airport M. O

Current Time: Sep 5, 2015 at 11:30:26 AM

Latest Report: Sep 5, 2015 at 11:00 AM


Visibility: N/A

Pressure: 30.15 "Hg

Humidity: 50%

Dew point: 50 °F

Location of SamfordLocation

Historic Weather in Samford — Graph

°F

Samford temperature yesterday

Maximum temperature yesterday: 72 °F (at 11:30 AM)
Minimum temperature yesterday: 52 °F (at 6:00 AM)
Average temperature yesterday: 64 °F

Past Weeks' High & Low Weather Summary

 TemperatureHumidityPressure
High79 °F (Aug 25, 12:00 PM)100% (Aug 21, 8:00 PM)30.30 "Hg (Aug 21, 8:00 PM)
Low45 °F (Sep 2, 5:00 AM)13% (Sep 1, 4:30 PM)29.77 "Hg (Sep 3, 2:00 PM)
Average64 °F71%30.08 "Hg
* Reported Aug 21 10:00 AM — Sep 5 10:00 AM, Samford, Weather by CustomWeather, © 2015

Note: Actual official high and low records may vary slightly from our data, if they occured in-between our weather recording intervals... More about our weather records

Advertising

Samford weather history for previous 24 hours

 ConditionsComfort  
Time TempWeatherWind HumidityBarometerVisibility
10:00 AM
Sat, Sep 5
70 °FPassing clouds.8 mph53%30.18 "HgN/A
9:30 AM68 °FPassing clouds.8 mph56%30.18 "HgN/A
9:00 AM66 °FPassing clouds.9 mph60%30.18 "HgN/A
8:30 AM64 °FPassing clouds.9 mph64%30.18 "HgN/A
8:00 AM63 °FPassing clouds.12 mph68%30.18 "HgN/A
7:30 AM59 °FPassing clouds.12 mph77%30.18 "HgN/A
7:00 AM57 °FPassing clouds.9 mph77%30.15 "HgN/A
6:30 AM54 °FPassing clouds.8 mph82%30.15 "HgN/A
6:00 AM54 °FPassing clouds.9 mph82%30.15 "HgN/A
5:00 AM55 °FPassing clouds.8 mph77%30.12 "HgN/A
4:00 AM55 °FClear.8 mph77%30.12 "Hg10 mi
3:30 AM55 °FPassing clouds.8 mph77%30.09 "HgN/A
3:00 AM55 °FClear.8 mph82%30.09 "Hg10 mi
2:30 AM59 °FClear.6 mph77%30.09 "Hg10 mi
2:00 AM57 °FClear.6 mph82%30.09 "Hg10 mi
1:00 AM59 °FClear.6 mph77%30.12 "Hg10 mi
12:00 AM61 °FClear.8 mph72%30.12 "Hg10 mi
11:30 PM
Fri, Sep 4
61 °FPassing clouds.6 mph72%30.12 "HgN/A
11:00 PM61 °FPassing clouds.6 mph72%30.12 "HgN/A
10:00 PM63 °FPassing clouds.7 mph68%30.15 "HgN/A
9:30 PM63 °FPassing clouds.8 mph68%30.12 "HgN/A
9:00 PM64 °FPassing clouds.9 mph64%30.12 "HgN/A
8:00 PM66 °FPassing clouds.12 mph60%30.12 "HgN/A
7:30 PM66 °FPassing clouds.12 mph64%30.09 "HgN/A
7:00 PM66 °FPassing clouds.10 mph64%30.09 "HgN/A
6:30 PM68 °FClear.9 mph64%30.09 "Hg10 mi
6:00 PM68 °FClear.10 mph64%30.07 "Hg10 mi
5:30 PM68 °FClear.12 mph60%30.07 "Hg10 mi
5:00 PM68 °FPassing clouds.10 mph60%30.04 "HgN/A
4:30 PM70 °FScattered clouds.10 mph57%30.04 "HgN/A
4:00 PM68 °FScattered clouds.12 mph64%30.04 "HgN/A
3:30 PM70 °FScattered clouds.12 mph60%30.04 "HgN/A
3:00 PM72 °FSunny.10 mph47%30.01 "Hg10 mi
2:30 PM72 °FSunny.9 mph44%30.01 "Hg10 mi
2:00 PM72 °FSunny.9 mph44%30.01 "Hg10 mi
1:00 PM72 °FPassing clouds.9 mph41%30.04 "HgN/A
12:30 PM72 °FSunny.7 mph38%30.04 "Hg10 mi
12:00 PM72 °FSunny.10 mph38%30.04 "Hg10 mi
11:30 AM72 °FSunny.10 mph36%30.07 "Hg10 mi
11:00 AM70 °FSunny.10 mph38%30.07 "Hg10 mi
Weather by CustomWeather, © 2015

See weather overviewHow to use our weather pages